Location: Eppenbrunn
(49.1158°N, 7.5601°E)
Time: 14:07:32
(UTC+00:00)

Cosmos 2100 Rocket - Pass Details

Date: 09 April 2020
Orbit: 957 x 1000 km, 82.9° (Epoch: 02 June)

Event Time Altitude Azimuth Distance (km) Brightness Sun altitude
Rises 22:12:20 0° 353° (N) 3,670 8.1 -30.3°
Reaches altitude 10° 22:14:55 10° 358° (N) 2,725 7.1 -30.5°
Enters shadow 22:20:34 54° 59° (ENE) 1,184 4.4 -30.8°
